Time,TemperatureF,DewpointF,PressureIn,WindDirection,WindDirectionDegrees,WindSpeedMPH,WindSpeedGustMPH,Humidity,HourlyPrecipIn,Conditions,Clouds,dailyrainin,SolarRadiationWatts/m^2,SoftwareType,DateUTC
2013-12-09 00:01:00,28.9,27.0,30.06,SW,232,6.0,11.0,93,0.00,,,0.00,0,weatherlink.com 1.10,2013-12-09 05:01:00,
2013-12-09 00:16:00,28.9,27.0,30.06,WSW,253,7.0,10.0,93,0.00,,,0.00,0,weatherlink.com 1.10,2013-12-09 05:16:00,
2013-12-09 00:31:00,28.8,27.0,30.06,WSW,245,5.0,12.0,93,0.00,,,0.00,0,weatherlink.com 1.10,2013-12-09 05:31:00,
2013-12-09 00:46:00,28.6,27.0,30.07,SW,234,6.0,10.0,93,0.00,,,0.00,0,weatherlink.com 1.10,2013-12-09 05:46:00,
2013-12-09 01:01:00,28.4,27.0,30.07,WSW,240,8.0,13.0,93,0.00,,,0.00,0,weatherlink.com 1.10,2013-12-09 06:01:00,
2013-12-09 01:16:00,28.2,27.0,30.06,SW,221,8.0,13.0,93,0.00,,,0.00,0,weatherlink.com 1.10,2013-12-09 06:16:00,
2013-12-09 01:31:00,28.0,26.0,30.06,SSW,204,8.0,15.0,92,0.00,,,0.00,0,weatherlink.com 1.10,2013-12-09 06:31:00,
2013-12-09 01:46:00,27.7,26.0,30.07,SW,229,5.0,12.0,92,0.00,,,0.00,0,weatherlink.com 1.10,2013-12-09 06:46:00,
2013-12-09 02:01:00,27.5,26.0,30.07,WSW,242,5.0,13.0,92,0.00,,,0.00,0,weatherlink.com 1.10,2013-12-09 07:01:00,
2013-12-09 02:16:00,27.1,25.0,30.07,WSW,242,4.0,12.0,92,0.00,,,0.00,0,weatherlink.com 1.10,2013-12-09 07:16:00,
2013-12-09 02:31:00,26.8,25.0,30.09,WSW,253,5.0,14.0,92,0.00,,,0.00,0,weatherlink.com 1.10,2013-12-09 07:31:00,
2013-12-09 02:46:00,26.6,25.0,30.09,WSW,238,5.0,12.0,92,0.00,,,0.00,0,weatherlink.com 1.10,2013-12-09 07:46:00,
2013-12-09 03:01:00,26.3,24.0,30.09,WNW,287,5.0,16.0,92,0.00,,,0.00,0,weatherlink.com 1.10,2013-12-09 08:01:00,
2013-12-09 03:16:00,26.1,24.0,30.10,WNW,291,5.0,12.0,92,0.00,,,0.00,0,weatherlink.com 1.10,2013-12-09 08:16:00,
2013-12-09 03:31:00,25.9,24.0,30.10,WSW,249,7.0,10.0,92,0.00,,,0.00,0,weatherlink.com 1.10,2013-12-09 08:31:00,
2013-12-09 03:46:00,25.7,24.0,30.11,West,263,6.0,11.0,92,0.00,,,0.00,0,weatherlink.com 1.10,2013-12-09 08:46:00,
2013-12-09 04:01:00,25.6,23.0,30.11,West,265,7.0,10.0,91,0.00,,,0.00,0,weatherlink.com 1.10,2013-12-09 09:01:00,
2013-12-09 04:16:00,25.5,23.0,30.11,NW,316,4.0,9.0,91,0.00,,,0.00,0,weatherlink.com 1.10,2013-12-09 09:16:00,
2013-12-09 04:31:00,25.5,23.0,30.12,WSW,245,4.0,9.0,91,0.00,,,0.00,0,weatherlink.com 1.10,2013-12-09 09:31:00,
2013-12-09 04:46:00,25.5,23.0,30.12,WSW,242,3.0,9.0,91,0.00,,,0.00,0,weatherlink.com 1.10,2013-12-09 09:46:00,
2013-12-09 05:01:00,25.4,23.0,30.12,SW,227,7.0,11.0,91,0.00,,,0.00,0,weatherlink.com 1.10,2013-12-09 10:01:00,
2013-12-09 05:16:00,25.4,23.0,30.12,West,274,2.0,10.0,91,0.00,,,0.00,0,weatherlink.com 1.10,2013-12-09 10:16:00,
2013-12-09 05:31:00,25.4,23.0,30.13,WSW,249,6.0,9.0,91,0.00,,,0.00,0,weatherlink.com 1.10,2013-12-09 10:31:00,
2013-12-09 05:46:00,25.3,23.0,30.13,SW,236,4.0,10.0,90,0.00,,,0.00,0,weatherlink.com 1.10,2013-12-09 10:46:00,
2013-12-09 06:01:00,25.3,23.0,30.14,West,261,2.0,9.0,90,0.00,,,0.00,0,weatherlink.com 1.10,2013-12-09 11:01:00,
2013-12-09 06:16:00,25.3,23.0,30.14,SW,223,6.0,10.0,90,0.00,,,0.00,0,weatherlink.com 1.10,2013-12-09 11:16:00,
2013-12-09 06:31:00,25.2,23.0,30.14,WSW,248,5.0,8.0,90,0.00,,,0.00,0,weatherlink.com 1.10,2013-12-09 11:31:00,
2013-12-09 06:46:00,25.2,23.0,30.15,SW,232,4.0,8.0,90,0.00,,,0.00,0,weatherlink.com 1.10,2013-12-09 11:46:00,
2013-12-09 07:01:00,25.2,22.0,30.15,West,259,5.0,11.0,89,0.00,,,0.00,0,weatherlink.com 1.10,2013-12-09 12:01:00,
2013-12-09 07:16:00,25.1,22.0,30.16,WSW,251,8.0,8.0,89,0.00,,,0.00,0,weatherlink.com 1.10,2013-12-09 12:16:00,
2013-12-09 07:31:00,25.1,22.0,30.17,WSW,248,5.0,12.0,89,0.00,,,0.00,0,weatherlink.com 1.10,2013-12-09 12:31:00,
2013-12-09 07:46:00,25.0,22.0,30.18,West,281,6.0,14.0,88,0.00,,,0.00,0,weatherlink.com 1.10,2013-12-09 12:46:00,
2013-12-09 08:01:00,24.9,22.0,30.17,WSW,239,3.0,9.0,88,0.00,,,0.00,0,weatherlink.com 1.10,2013-12-09 13:01:00,
2013-12-09 08:16:00,24.8,22.0,30.18,West,276,10.0,11.0,87,0.00,,,0.00,0,weatherlink.com 1.10,2013-12-09 13:16:00,
2013-12-09 08:31:00,24.8,22.0,30.19,West,264,3.0,8.0,87,0.00,,,0.00,5,weatherlink.com 1.10,2013-12-09 13:31:00,
2013-12-09 08:46:00,24.8,22.0,30.20,West,275,6.0,12.0,87,0.00,,,0.00,7,weatherlink.com 1.10,2013-12-09 13:46:00,
2013-12-09 09:01:00,24.8,22.0,30.21,SW,234,5.0,12.0,87,0.00,,,0.00,11,weatherlink.com 1.10,2013-12-09 14:01:00,
2013-12-09 09:16:00,24.9,22.0,30.22,WNW,286,9.0,13.0,87,0.00,,,0.00,12,weatherlink.com 1.10,2013-12-09 14:16:00,
2013-12-09 09:31:00,24.7,21.0,30.23,WSW,251,7.0,12.0,87,0.00,,,0.00,14,weatherlink.com 1.10,2013-12-09 14:31:00,
2013-12-09 09:46:00,24.7,21.0,30.23,NW,309,1.0,12.0,87,0.00,,,0.00,21,weatherlink.com 1.10,2013-12-09 14:46:00,
2013-12-09 10:01:00,24.5,21.0,30.23,SW,234,6.0,10.0,87,0.00,,,0.00,62,weatherlink.com 1.10,2013-12-09 15:01:00,
2013-12-09 10:16:00,24.7,21.0,30.23,West,270,2.0,10.0,87,0.00,,,0.00,88,weatherlink.com 1.10,2013-12-09 15:16:00,
2013-12-09 10:31:00,24.7,21.0,30.22,WSW,242,1.0,10.0,86,0.00,,,0.00,100,weatherlink.com 1.10,2013-12-09 15:31:00,
2013-12-09 10:47:00,24.6,21.0,30.23,West,275,1.0,7.0,86,0.00,,,0.00,109,weatherlink.com 1.10,2013-12-09 15:47:00,
2013-12-09 11:02:00,25.1,21.0,30.23,WSW,251,4.0,6.0,85,0.00,,,0.00,165,weatherlink.com 1.10,2013-12-09 16:02:00,
2013-12-09 11:17:00,25.3,21.0,30.23,WNW,291,1.0,9.0,84,0.00,,,0.00,142,weatherlink.com 1.10,2013-12-09 16:17:00,
2013-12-09 11:32:00,25.3,21.0,30.24,WSW,252,9.0,12.0,84,0.00,,,0.00,105,weatherlink.com 1.10,2013-12-09 16:32:00,
2013-12-09 11:47:00,24.9,20.0,30.25,West,263,4.0,12.0,83,0.00,,,0.00,111,weatherlink.com 1.10,2013-12-09 16:47:00,
2013-12-09 12:02:00,24.6,20.0,30.26,WNW,289,2.0,14.0,83,0.00,,,0.00,84,weatherlink.com 1.10,2013-12-09 17:02:00,
2013-12-09 12:17:00,24.5,20.0,30.26,West,259,8.0,15.0,83,0.00,,,0.00,100,weatherlink.com 1.10,2013-12-09 17:17:00,
2013-12-09 12:32:00,24.5,19.0,30.26,WSW,244,7.0,15.0,81,0.00,,,0.00,151,weatherlink.com 1.10,2013-12-09 17:32:00,
2013-12-09 12:47:00,24.8,19.0,30.26,West,267,8.0,11.0,80,0.00,,,0.00,178,weatherlink.com 1.10,2013-12-09 17:47:00,
2013-12-09 13:02:00,25.0,19.0,30.26,West,270,4.0,18.0,77,0.00,,,0.00,186,weatherlink.com 1.10,2013-12-09 18:02:00,
2013-12-09 13:17:00,25.8,20.0,30.26,WSW,258,6.0,9.0,77,0.00,,,0.00,202,weatherlink.com 1.10,2013-12-09 18:17:00,
2013-12-09 13:32:00,26.0,19.0,30.26,WSW,258,3.0,10.0,74,0.00,,,0.00,265,weatherlink.com 1.10,2013-12-09 18:32:00,
2013-12-09 13:47:00,26.8,19.0,30.25,WSW,248,2.0,11.0,72,0.00,,,0.00,693,weatherlink.com 1.10,2013-12-09 18:47:00,
2013-12-09 14:02:00,27.3,19.0,30.26,WNW,292,5.0,9.0,71,0.00,,,0.00,457,weatherlink.com 1.10,2013-12-09 19:02:00,
2013-12-09 14:17:00,26.3,18.0,30.25,WNW,292,4.0,19.0,70,0.00,,,0.00,392,weatherlink.com 1.10,2013-12-09 19:17:00,
2013-12-09 14:32:00,26.1,17.0,30.25,WNW,286,5.0,15.0,69,0.00,,,0.00,338,weatherlink.com 1.10,2013-12-09 19:32:00,
2013-12-09 14:47:00,26.0,17.0,30.26,SW,223,3.0,11.0,68,0.00,,,0.00,325,weatherlink.com 1.10,2013-12-09 19:47:00,
2013-12-09 15:02:00,26.0,17.0,30.26,WSW,248,2.0,12.0,68,0.00,,,0.00,230,weatherlink.com 1.10,2013-12-09 20:02:00,
2013-12-09 15:17:00,25.7,16.0,30.27,West,259,13.0,13.0,67,0.00,,,0.00,195,weatherlink.com 1.10,2013-12-09 20:17:00,
2013-12-09 15:32:00,25.6,16.0,30.26,WNW,293,3.0,9.0,68,0.00,,,0.00,236,weatherlink.com 1.10,2013-12-09 20:32:00,
2013-12-09 15:47:00,25.4,16.0,30.27,WSW,253,5.0,9.0,67,0.00,,,0.00,229,weatherlink.com 1.10,2013-12-09 20:47:00,
2013-12-09 16:03:00,24.8,16.0,30.27,West,277,2.0,9.0,68,0.00,,,0.00,109,weatherlink.com 1.10,2013-12-09 21:03:00,
2013-12-09 16:17:00,24.2,16.0,30.27,WNW,289,3.0,11.0,70,0.00,,,0.00,81,weatherlink.com 1.10,2013-12-09 21:17:00,
2013-12-09 16:32:00,23.6,15.0,30.27,WSW,257,2.0,12.0,71,0.00,,,0.00,60,weatherlink.com 1.10,2013-12-09 21:32:00,
2013-12-09 16:47:00,23.3,16.0,30.28,WSW,248,3.0,7.0,73,0.00,,,0.00,39,weatherlink.com 1.10,2013-12-09 21:47:00,
2013-12-09 17:02:00,22.8,16.0,30.29,West,263,2.0,6.0,74,0.00,,,0.00,21,weatherlink.com 1.10,2013-12-09 22:02:00,
2013-12-09 17:17:00,22.4,16.0,30.29,West,260,4.0,7.0,75,0.00,,,0.00,5,weatherlink.com 1.10,2013-12-09 22:17:00,
2013-12-09 17:32:00,22.0,16.0,30.29,WSW,240,1.0,6.0,76,0.00,,,0.00,0,weatherlink.com 1.10,2013-12-09 22:32:00,
2013-12-09 17:47:00,21.7,16.0,30.30,WSW,252,1.0,5.0,77,0.00,,,0.00,0,weatherlink.com 1.10,2013-12-09 22:47:00,
2013-12-09 18:02:00,21.6,16.0,30.30,WSW,257,2.0,7.0,78,0.00,,,0.00,0,weatherlink.com 1.10,2013-12-09 23:02:00,
2013-12-09 18:17:00,21.5,16.0,30.29,WSW,257,0.0,4.0,79,0.00,,,0.00,0,weatherlink.com 1.10,2013-12-09 23:17:00,
2013-12-09 18:32:00,21.5,16.0,30.30,WSW,257,2.0,4.0,79,0.00,,,0.00,0,weatherlink.com 1.10,2013-12-09 23:32:00,
2013-12-09 18:48:00,21.4,16.0,30.30,WSW,257,1.0,2.0,79,0.00,,,0.00,0,weatherlink.com 1.10,2013-12-09 23:48:00,
2013-12-09 19:03:00,21.3,16.0,30.29,WSW,257,0.0,2.0,79,0.00,,,0.00,0,weatherlink.com 1.10,2013-12-10 00:03:00,
2013-12-09 19:18:00,21.1,16.0,30.29,WSW,257,1.0,4.0,80,0.00,,,0.00,0,weatherlink.com 1.10,2013-12-10 00:18:00,
2013-12-09 19:33:00,20.8,15.0,30.29,WNW,286,0.0,5.0,78,0.00,,,0.00,0,weatherlink.com 1.10,2013-12-10 00:33:00,
2013-12-09 19:48:00,20.5,15.0,30.29,WSW,252,2.0,6.0,78,0.00,,,0.00,0,weatherlink.com 1.10,2013-12-10 00:48:00,
2013-12-09 20:03:00,20.3,14.0,30.28,NW,313,1.0,5.0,77,0.00,,,0.00,0,weatherlink.com 1.10,2013-12-10 01:03:00,
2013-12-09 20:18:00,20.2,14.0,30.27,NW,313,1.0,2.0,77,0.00,,,0.00,0,weatherlink.com 1.10,2013-12-10 01:18:00,
2013-12-09 20:33:00,20.3,14.0,30.27,West,261,0.0,4.0,77,0.00,,,0.00,0,weatherlink.com 1.10,2013-12-10 01:33:00,
2013-12-09 20:48:00,20.3,14.0,30.27,West,261,1.0,1.0,78,0.00,,,0.00,0,weatherlink.com 1.10,2013-12-10 01:48:00,
2013-12-09 21:03:00,20.3,14.0,30.26,West,261,0.0,1.0,78,0.00,,,0.00,0,weatherlink.com 1.10,2013-12-10 02:03:00,
2013-12-09 21:18:00,20.4,15.0,30.27,NNW,336,1.0,4.0,80,0.00,,,0.00,0,weatherlink.com 1.10,2013-12-10 02:18:00,
2013-12-09 21:33:00,20.4,15.0,30.28,WSW,244,1.0,6.0,79,0.00,,,0.00,0,weatherlink.com 1.10,2013-12-10 02:33:00,
2013-12-09 21:48:00,20.5,15.0,30.28,WSW,244,1.0,5.0,79,0.00,,,0.00,0,weatherlink.com 1.10,2013-12-10 02:48:00,
2013-12-09 22:03:00,20.4,15.0,30.28,WSW,257,0.0,5.0,78,0.00,,,0.00,0,weatherlink.com 1.10,2013-12-10 03:03:00,
2013-12-09 22:18:00,20.4,15.0,30.28,SW,229,0.0,5.0,78,0.00,,,0.00,0,weatherlink.com 1.10,2013-12-10 03:18:00,
2013-12-09 22:33:00,20.4,15.0,30.28,SW,229,1.0,4.0,79,0.00,,,0.00,0,weatherlink.com 1.10,2013-12-10 03:33:00,
2013-12-09 22:48:00,20.3,15.0,30.27,SW,229,0.0,4.0,79,0.00,,,0.00,0,weatherlink.com 1.10,2013-12-10 03:48:00,
2013-12-09 23:03:00,20.2,15.0,30.27,SW,229,1.0,4.0,79,0.00,,,0.00,0,weatherlink.com 1.10,2013-12-10 04:03:00,
2013-12-09 23:18:00,20.2,15.0,30.27,NNW,342,0.0,4.0,79,0.00,,,0.00,0,weatherlink.com 1.10,2013-12-10 04:18:00,
2013-12-09 23:33:00,20.2,15.0,30.29,West,276,2.0,4.0,80,0.00,,,0.00,0,weatherlink.com 1.10,2013-12-10 04:33:00,
2013-12-09 23:48:00,19.9,16.0,30.28,West,276,0.0,4.0,83,0.00,,,0.00,0,weatherlink.com 1.10,2013-12-10 04:48:00,